Location: American Canyon
(38.1966°N, 122.1514°W)
Time: 13:33:41
(UTC+00:00)

SAR-Lupe-4 - Pass Details

Date: 29 October 2020
Orbit: 481 x 484 km, 98.2° (Epoch: 25 November)

Event Time Altitude Azimuth Distance (km) Brightness Sun altitude
Rises 13:30:19 0° 179° (S) 2,532 7.3 -12.7°
Reaches altitude 10° 13:32:26 10° 186° (S) 1,656 6.3 -12.3°
Maximum altitude 13:35:50 44° 260° (W) 678 3.8 -11.6°
Drops below altitude 10° 13:39:17 10° 334° (NNW) 1,668 5.9 -11.0°
Sets 13:41:25 0° 341° (NNW) 2,552 6.9 -10.5°
